Volver al catálogo

STARLINK-37810

ActivoComunicacionesVLEO
NORAD 100292·PAYLOAD·🇺🇸 United States

Lanzado Aug 11, 2026 desde Cape Canaveral Space Force Station

Loading…

Próximos Pases (próximas 24 horas)

TLE

EnvejeciendoSource: Space-Track

Época: Sep 11, 2026, 12:14 UTC

1 A0292U 26183W   26254.51036600 -.00206136  00000-0 -14125-2 0  9998
2 A0292  53.1567 301.5538 0002044  62.3920 297.7307 15.74594583  4896

Sigue STARLINK-37810 en tiempo real con AllMySat

Download on the App Store